If you wish to contribute or participate in the discussions about articles you are invited to join SKYbrary as a registered user

 Actions

El Tor Airport

From SKYbrary Wiki

HETR
Airport
ICAO: HETR – IATA: ELT
Summary
Name El Tor Airport
Region Africa
Territory Egypt EG.gif
Location El Tor, Janub Sina'
Serving El Tor
Elevation 35.052 m
115 ft
115 ft35.052 m
Type small airport
Coordinates 28° 12' 32.50" N, 33° 38' 43.86" E
Runways
Designator Length Width Surface ROPS
10/28 3000 m9,842.52 ft
45 m147.638 ft
ASP /


METAR
Observation HETR 041100Z 29011KT CAVOK 25/21 Q1010
Station El Tor
Date/Time 04 June 2020 11:00:00
Wind direction 290°
Wind speed 11 kts
Lowest cloud amount clouds and visibility OK
Temperature 25°C
Dew point 21°C
Humidity 78%
QNH 1010 hPa
Weather condition n/a

Maps

Terrain

Loading map...

Airport Layout

Loading map...


Accidents & Serious Incidents at or in vicinity of HETR

None on SKYbrary